This is the latest recevied weather packets stored in our database for station/object DL4NBA-1. If no packets are shown the sender has not sent any weather packets the latest 10 day(s).
| Time | Temp. | Humidity | Pressure | Rain* | Wind** | Luminosity | Snow |
|---|---|---|---|---|---|---|---|
| 1777495901 | 8.89° C | - | - | 0 mm | 3.58 m/s, 51° | - | - |
| 1777495602 | 9.44° C | - | - | 0 mm | 2.24 m/s, 66° | - | - |
| 1777495303 | 9.44° C | - | - | 0 mm | 3.13 m/s, 68° | - | - |
| 1777495002 | 9.44° C | - | - | 0 mm | 3.13 m/s, 31° | - | - |
| 1777494703 | 9.44° C | - | - | 0 mm | 3.58 m/s, 84° | - | - |
| 1777494405 | 9.44° C | - | - | 0 mm | 4.47 m/s, 87° | - | - |
| 1777494106 | 9.44° C | - | - | 0 mm | 4.92 m/s, 46° | - | - |
| 1777493807 | 9.44° C | - | - | 0 mm | 6.26 m/s, 72° | - | - |
| 1777493506 | 9.44° C | - | - | 0 mm | 5.81 m/s, 46° | - | - |
| 1777493207 | 9.44° C | - | - | 0 mm | 5.36 m/s, 66° | - | - |
| 1777492908 | 9.44° C | - | - | 0 mm | 2.68 m/s, 45° | - | - |
| 1777492609 | 9.44° C | - | - | 0 mm | 2.24 m/s, 65° | - | - |
| 1777492311 | 9.44° C | - | - | 0 mm | 2.68 m/s, 56° | - | - |
| 1777492009 | 9.44° C | - | - | 0 mm | 4.47 m/s, 24° | - | - |
| 1777491711 | 9.44° C | - | - | 0 mm | 4.92 m/s, 30° | - | - |
| 1777491412 | 10° C | - | - | 0 mm | 5.36 m/s, 8° | - | - |
| 1777491113 | 10° C | - | - | 0 mm | 3.58 m/s, 21° | - | - |
| 1777490814 | 10° C | - | - | 0 mm | 4.02 m/s, 25° | - | - |
| 1777490513 | 10° C | - | - | 0 mm | 4.47 m/s, 6° | - | - |
| 1777490214 | 10° C | - | - | 0 mm | 3.58 m/s, 27° | - | - |
| 1777489915 | 10° C | - | - | 0 mm | 4.47 m/s, 357° | - | - |
| 1777489617 | 10.56° C | - | - | 0 mm | 4.47 m/s, 17° | - | - |
| 1777489318 | 10.56° C | - | - | 0 mm | 3.58 m/s, 21° | - | - |
| 1777489016 | 10.56° C | - | - | 0 mm | 4.47 m/s, 23° | - | - |
| 1777488718 | 11.11° C | - | - | 0 mm | 4.47 m/s, 6° | - | - |
* Rain latest hour (hover to see other rain measurements)
** Current wind speed in m/s (hover to see current wind gust speed)